[Iaude] MPEC O112: 2024 ON1 [a=2.67,e=0.53,i=17.9,H=22.4]
    mpec at cfa.harvard.edu 
    mpec at cfa.harvard.edu
       
    Wed Jul 31 07:07:13 EDT 2024
    
    
  
M.P.E.C. 2024-O112                                Issued 2024 July 31, 11:05 UT
     The Minor Planet Electronic Circulars contain information on unusual
         minor planets, routine data on comets and natural satellites,
         and occasional editorial announcements.  They are published
    on behalf of Division F of the International Astronomical Union by the
          Minor Planet Center, Smithsonian Astrophysical Observatory,
                          Cambridge, MA 02138, U.S.A.
			  
             Prepared using the Tamkin Foundation Computer Network
                              MPC at CFA.HARVARD.EDU
            URL https://www.minorplanetcenter.net/    ISSN 1523-6714
                                    2024 ON1                                    
Observations:
     K24O01N* C2024 07 28.40523621 54 54.121+12 55 28.97         21.50wXEO112F51
     K24O01N  C2024 07 28.41661121 54 55.979+12 54 53.64         21.78wXEO112F51
     K24O01N  C2024 07 28.42796121 54 57.807+12 54 18.66         21.46wXEO112F51
     K24O01N  C2024 07 28.52404221 55 13.294+12 49 18.34         21.60GVEO112F52
     K24O01N  C2024 07 28.52487021 55 13.438+12 49 15.83         21.19GVEO112F52
     K24O01N KC2024 07 29.24737821 57 19.89 +12 10 50.3          21.2 GVEO112H21
     K24O01N KC2024 07 29.25591821 57 21.28 +12 10 23.2          21.6 GVEO112H21
     K24O01N KC2024 07 29.25876321 57 21.75 +12 10 14.0          21.3 GVEO112H21
     K24O01N 3C2024 07 29.48551421 58 00.656+11 58 12.32         21.22GVEO112T14
     K24O01N 3C2024 07 29.48649121 58 00.813+11 58 09.14         21.15GVEO112T14
     K24O01N 3C2024 07 29.48748621 58 00.971+11 58 05.93         21.12GVEO112T14
     K24O01N KB2024 07 29.88120 21 59 10.20 +11 36 25.7          20.3 RZEO112106
     K24O01N KB2024 07 29.88752 21 59 11.22 +11 36 05.6          20.8 RZEO112106
     K24O01N KB2024 07 29.89345 21 59 12.27 +11 35 44.6          20.3 RZEO112106
     K24O01N KB2024 07 29.89885 21 59 13.20 +11 35 26.6          20.7 RZEO112106
     K24O01N !C2024 07 31.39783 22 03 30.34 +10 11 28.8          20.2 GVEO112673
     K24O01N !C2024 07 31.40042 22 03 30.75 +10 11 20.0                VEO112673
Observer details:
106 Crni Vrh.  Observer H. Mikuz.  0.60-m f/3.3 reflector + CMO.
673 Table Mountain Observatory, Wrightwood.  Observer J. Pittichova.  1.0-m
    f/15 reflector + CCD.
F51 Pan-STARRS 1, Haleakala.  Observers J. Herman, T. Lowe, P. Minguez, A.
    Schultz, I. Smith.  Measurers K. Chambers, T. de Boer, J. Fairlamb, H.
    Gao, M. Huber, C.-C. Lin, E. Magnier, Y. Ramanjooloo, R. Wainscoat, R.
    Weryk.  1.8-m Ritchey-Chretien + CCD.
F52 Pan-STARRS 2, Haleakala.  Observers J. Herman, T. Lowe, P. Minguez, A.
    Schultz, I. Smith.  Measurers K. Chambers, T. de Boer, J. Fairlamb, H.
    Gao, M. Huber, C.-C. Lin, E. Magnier, Y. Ramanjooloo, R. Wainscoat, R.
    Weryk.  1.8-m Ritchey-Chretien + CCD.
H21 Astronomical Research Observatory, Westfield.  Observer R. Holmes.
    Measurers T. Linder, R. Holmes.  0.81-m f/4.0 astrograph + CCD.
T14 Canada-France-Hawaii Telescope, Maunakea.  Observers R. Wainscoat, J.
    Silva, H. Flewelling.  Measurers R. Weryk, R. Wainscoat.  3.6-m f/4.1
    reflector + CCD.
Orbital elements:
2024 ON1                                                 Earth MOID = 0.2423 AU
Epoch 2024 Oct. 17.0 TT = JDT 2460600.5                 Veres                   
M  19.02716              (2000.0)            P               Q                  
n   0.22606537     Peri.  160.00787     +0.61593537     +0.77007024             
a   2.6687836      Node   147.36244     -0.75820186     +0.63673244             
e   0.5349183      Incl.   17.94628     -0.21390081     -0.03954271             
P   4.36           H   22.46          G   0.15           U   9                  
Residuals in seconds of arc
240728 F51  0.0   0.1-    240729 H21  0.0   0.1+    240729 106  1.2-  0.8+
240728 F51  0.1+  0.1-    240729 H21  0.1+  0.1+    240729 106  0.3-  0.9-
240728 F51  0.1-  0.1+    240729 T14  0.0   0.0     240729 106  0.2+  1.2-
240728 F52  0.1-  0.1+    240729 T14  0.0   0.0     240731 673  0.2+  0.0
240728 F52  0.0   0.2+    240729 T14  0.0   0.0     240731 673  0.1+  0.2+
240729 H21  0.0   0.1-    240729 106  0.7-  0.3+
Ephemeris:
2024 ON1                 a,e,i = 2.67, 0.53, 18                  q = 1.2412
Date    TT    R. A. (2000) Decl.     Delta      r    Elong.  Phase     V
2024 07 01    20 38 37.3 +25 12 44   0.3821  1.2698   123.8    41.7    22.5
...
2024 07 16    21 18 58.3 +21 12 16   0.3128  1.2452   131.3    37.8    21.9
...
2024 07 24    21 42 03.5 +16 26 14   0.2845  1.2412   137.7    33.4    21.6
...
2024 07 30    21 59 29.5 +11 30 17   0.2690  1.2425   143.8    28.8    21.3
2024 07 31    22 02 21.9 +10 34 27   0.2670  1.2431   144.9    28.0    21.3
2024 08 01    22 05 13.5 +09 36 53   0.2652  1.2438   146.0    27.1    21.3
...
2024 08 07    22 21 56.3 +03 20 49   0.2582  1.2500   153.2    21.5    21.1
...
2024 08 15    22 42 26.9 -05 44 13   0.2610  1.2639   162.3    14.1    20.9
...
2024 08 30    23 12 49.3 -20 47 29   0.3039  1.3056   165.0    11.6    21.2
M. P. C. Staff               (C) Copyright 2024 MPC           M.P.E.C. 2024-O112
    
    
More information about the Iaude
mailing list